Location: Newark
(35.8833°N, 14.5000°E)
Time: 04:48:25
(UTC+00:00)

Altair - Pass Details

Date: 22 November 2019
Orbit: 1502 x 1682 km, 47.2° (Epoch: 14 December)

Event Time Altitude Azimuth Distance (km) Brightness Sun altitude
Rises 22:12:39 0° 187° (S) 4,710 - -72.5°
Reaches altitude 10° 22:16:36 10° 174° (S) 3,702 - -72.9°
Maximum altitude 22:23:18 23° 127° (SE) 2,809 - -73.4°
Drops below altitude 10° 22:29:54 10° 80° (E) 3,654 - -73.8°
Sets 22:33:43 0° 66° (ENE) 4,634 - -74.0°
